This demonstration page uses our WeatherBlox Daily Observations layout. Learn more.

Hourly Observations for October 14, 2016

Temp ( °F °C ) Dew Point ( °F °C ) Humidity (%) Winds ( mph kmh ) Pressure ( in mb ) Visibility ( mi km ) Precip ( " mm )
12:15 am 00:15 Clear 44 6.5 37 2.5 76 76 SSE 9 15 30.09 1019 10 16.09344 0 0
12:35 am 00:35 Clear 44 6.4 37 2.5 76 76 S 9 15 30.12 1020 10 16.09344 0 0
12:55 am 00:55 Clear 43 6 37 2.5 78 78 S 9 15 30.12 1020 10 16.09344 0 0
1:15 am 01:15 Clear 43 6 37 2.5 78 78 S 7 11 30.12 1020 10 16.09344 0 0
1:35 am 01:35 Clear 42 5.5 36 2.3 80 80 S 5 7 30.12 1020 10 16.09344 0 0
1:55 am 01:55 Clear 40 4.6 36 2.1 84 84 S 5 7 30.12 1020 10 16.09344 0 0
2:15 am 02:15 Clear 40 4.5 36 2.2 85 85 S 5 7 30.12 1020 10 16.09344 0 0
2:35 am 02:35 Clear 40 4.3 36 2.3 87 87 S 6 9 30.12 1020 10 16.09344 0 0
2:55 am 02:55 Clear 39 4 36 2.1 88 88 S 5 7 30.12 1020 10 16.09344 0 0
3:15 am 03:15 Clear 39 4 36 2.2 88 88 S 6 9 30.09 1019 10 16.09344 0 0
3:35 am 03:35 Clear 39 3.7 36 2 89 89 S 6 9 30.09 1019 10 16.09344 0 0
3:55 am 03:55 Clear 39 3.8 36 2.1 89 89 S 6 9 30.09 1019 10 16.09344 0 0
4:15 am 04:15 Clear 40 4.3 37 2.6 89 89 S 7 11 30.09 1019 10 16.09344 0 0
4:35 am 04:35 Clear 39 4.1 37 2.5 89 89 S 8 13 30.06 1018 10 16.09344 0 0
4:55 am 04:55 Clear 40 4.7 37 3 89 89 S 9 15 30.06 1018 10 16.09344 0 0
5:15 am 05:15 Clear 41 5.1 38 3.1 87 87 S 9 15 30.06 1018 10 16.09344 0 0
5:35 am 05:35 Clear 41 5.1 38 3.1 87 87 S 8 13 30.06 1018 10 16.09344 0 0
5:55 am 05:55 Clear 41 5.2 38 3.4 88 88 S 10 17 30.06 1018 10 16.09344 0 0
6:15 am 06:15 Clear 42 5.5 38 3.5 87 87 S 10 17 30.06 1018 10 16.09344 0 0
6:35 am 06:35 Clear 42 5.5 38 3.5 87 87 S 10 17 30.06 1018 10 16.09344 0 0
6:55 am 06:55 Clear 41 5.2 38 3.5 89 89 S 10 17 30.03 1017 10 16.09344 0 0
7:15 am 07:15 Clear 41 5.1 38 3.5 90 90 S 9 15 30.03 1017 10 16.09344 0 0
7:35 am 07:35 Clear 41 5.1 39 3.7 91 91 S 10 17 30.03 1017 10 16.09344 0 0
7:55 am 07:55 Sunny 41 5.1 39 3.8 91 91 S 9 15 30.03 1017 10 16.09344 0 0
8:15 am 08:15 Sunny 41 5 39 3.8 92 92 S 12 19 30.03 1017 10 16.09344 0 0
8:35 am 08:35 Sunny 42 5.6 40 4.4 92 92 S 13 20 30.03 1017 10 16.09344 0 0
8:55 am 08:55 Sunny 44 6.5 41 5 90 90 S 14 22 30 1016 10 16.09344 0 0
9:15 am 09:15 Sunny 45 7.4 42 5.7 89 89 S 14 22 30 1016 10 16.09344 0 0
9:35 am 09:35 Mostly Cloudy 45 7.2 42 5.8 91 91 S 16 26 30 1016 10 16.09344 0 0
9:55 am 09:55 Cloudy with Mist and Fog 44 6.8 42 5.8 93 93 S 15 24 30 1016 1.25 2.01168 0 0
10:15 am 10:15 Cloudy with Mist and Fog 45 7.1 43 6.3 95 95 S 13 20 30 1016 1.5 2.414016 0 0
10:35 am 10:35 Cloudy with Mist and Fog 45 7.3 44 6.5 95 95 S 14 22 30 1016 1.75 2.816352 0 0
10:55 am 10:55 Cloudy with Mist and Fog 46 8 45 7 93 93 S 14 22 30 1016 4 6.437376 0 0
11:15 am 11:15 Cloudy 48 8.8 46 7.6 92 92 S 13 20 30 1016 7 11.265408 0 0
11:35 am 11:35 Cloudy 49 9.5 46 7.7 89 89 S 13 20 29.94 1014 10 16.09344 0 0
11:55 am 11:55 Cloudy 51 10.5 47 8.4 87 87 S 16 26 29.94 1014 10 16.09344 0 0
12:15 pm 12:15 Cloudy 53 11.5 48 8.7 83 83 S 15 24 29.94 1014 10 16.09344 0 0
12:35 pm 12:35 Mostly Cloudy 54 12.3 48 9 80 80 S 16 26 29.91 1013 10 16.09344 0 0
12:55 pm 12:55 Partly Cloudy 56 13.6 49 9.3 75 75 S 14 22 29.88 1012 10 16.09344 0 0
1:15 pm 13:15 Sunny 58 14.5 49 9.4 72 72 S 15 24 29.88 1012 10 16.09344 0 0
1:35 pm 13:35 Sunny 60 15.8 49 9.5 66 66 S 15 24 29.85 1011 10 16.09344 0 0
1:55 pm 13:55 Sunny 63 17.1 49 9.6 62 62 S 15 24 29.85 1011 10 16.09344 0 0
2:15 pm 14:15 Sunny 64 17.6 49 9.7 60 60 S 16 26 29.83 1010 10 16.09344 0 0
2:35 pm 14:35 Sunny 65 18.6 50 9.8 57 57 S 18 30 29.8 1009 10 16.09344 0 0
2:55 pm 14:55 Sunny 68 20.1 50 9.9 52 52 S 17 28 29.77 1008 10 16.09344 0 0
3:15 pm 15:15 Sunny 68 20.2 49 9.6 51 51 S 14 22 29.74 1007 10 16.09344 0 0
3:35 pm 15:35 Sunny 69 20.4 50 9.9 51 51 S 15 24 29.74 1007 10 16.09344 0 0
3:55 pm 15:55 Sunny 71 21.5 49 9.7 47 47 S 18 30 29.71 1006 10 16.09344 0 0
4:15 pm 16:15 Sunny 69 20.8 50 10 50 50 S 15 24 29.74 1007 10 16.09344 0 0
4:35 pm 16:35 Sunny 69 20.8 51 10.5 52 52 S 18 30 29.71 1006 10 16.09344 0 0
4:55 pm 16:55 Sunny 70 21.2 51 10.7 51 51 S 20 31 29.68 1005 10 16.09344 0 0
5:15 pm 17:15 Sunny 71 21.4 52 11 52 52 S 15 24 29.68 1005 10 16.09344 0 0
5:35 pm 17:35 Sunny 71 21.5 52 11 51 51 S 13 20 29.68 1005 10 16.09344 0 0
5:55 pm 17:55 Sunny 71 21.9 52 11.1 50 50 S 17 28 29.68 1005 10 16.09344 0 0
6:15 pm 18:15 Sunny 71 21.6 52 11.2 52 52 SSE 15 24 29.68 1005 10 16.09344 0 0
6:35 pm 18:35 Sunny 69 20.8 53 11.5 55 55 SSE 12 19 29.71 1006 10 16.09344 0 0
6:55 pm 18:55 Sunny 68 20.2 53 11.5 58 58 SSE 9 15 29.71 1006 10 16.09344 0 0
7:15 pm 19:15 Clear 68 19.8 53 11.8 60 60 SSE 10 17 29.71 1006 10 16.09344 0 0
7:35 pm 19:35 Clear 66 18.7 53 11.9 65 65 SSE 12 19 29.71 1006 10 16.09344 0 0
7:55 pm 19:55 Clear 65 18.3 54 12.1 67 67 SSE 13 20 29.71 1006 10 16.09344 0 0
8:15 pm 20:15 Clear 64 17.7 55 12.5 72 72 SSE 13 20 29.71 1006 10 16.09344 0 0
8:35 pm 20:35 Clear 64 17.5 55 12.6 73 73 SSE 12 19 29.71 1006 10 16.09344 0 0
8:55 pm 20:55 Clear 63 17.2 55 12.6 75 75 SSE 13 20 29.74 1007 10 16.09344 0 0
9:15 pm 21:15 Clear 64 17.6 55 12.6 73 73 SSE 13 20 29.71 1006 10 16.09344 0 0
9:35 pm 21:35 Clear 64 17.8 55 12.5 71 71 SSE 15 24 29.71 1006 10 16.09344 0 0
9:55 pm 21:55 Clear 64 17.6 55 12.5 72 72 SSE 15 24 29.71 1006 10 16.09344 0 0
10:15 pm 22:15 Clear 64 17.5 54 12.3 72 72 S 16 26 29.71 1006 10 16.09344 0 0
10:35 pm 22:35 Clear 63 17.2 55 12.5 74 74 SSE 14 22 29.74 1007 10 16.09344 0 0
10:55 pm 22:55 Clear 63 17 55 12.7 76 76 S 15 24 29.71 1006 10 16.09344 0 0
11:15 pm 23:15 Clear 62 16.9 55 12.9 77 77 S 13 20 29.71 1006 10 16.09344 0 0
11:35 pm 23:35 Clear 62 16.7 55 13 79 79 S 14 22 29.74 1007 10 16.09344 0 0
11:55 pm 23:55 Clear 62 16.5 55 13 80 80 S 13 20 29.71 1006 10 16.09344 0 0

Powered by AerisWeather